[[{"header":{"parameterUnit":"m.s-1","parameterCategory":1,"la1":30.2991,"la2":30.254,"lo1":-89.0895,"lo2":-89.0444,"dy":0.0017,"dx":0.0017,"nx":28,"ny":28,"refTime":"2024-04-08T21:00:00:Z","depth":0,"parameterNumber":2,"parameterNumberName":"U-component_of_WINDS"},"data":[0,0,0,0,0,0,0,0,0,0,0,0,0,0,0,0,0,0,0,0,0,0,0,0,0,0,0,0,0,0,0,0,0,0,0,0,0,0,0,0,0,0,0,0,0,0,0,0,0,0,0,0,0,0,0,0,0,0,-3.036,-3.036,0,-3.0388,-3.0388,-3.0389,-3.0398,-3.0397,-3.0397,-3.0397,-3.0425,-3.0425,-3.0426,0,0,0,0,0,0,0,0,0,0,0,0,0,-3.0312,-3.0312,-3.036,-3.036,-3.036,-3.0388,-3.0388,-3.0389,-3.0398,-3.0397,-3.0397,-3.0397,-3.0424,-3.0425,-3.0426,0,0,0,0,0,0,0,0,0,0,0,0,0,-3.0335,-3.0313,-3.036,-3.0368,-3.0369,-3.0388,-3.0389,-3.0389,-3.0398,-3.0397,-3.0397,-3.0397,-3.0424,-3.0425,-3.0426,-3.0438,0,0,-3.043,-3.0431,0,0,0,0,0,0,0,0,-3.0334,-3.0337,-3.0366,-3.0368,-3.0369,-3.0389,-3.0382,-3.0405,-3.0398,-3.0387,-3.0397,-3.0397,-3.0413,-3.0415,-3.0421,-3.044,-3.0441,-3.043,-3.0431,-3.0432,-3.0432,0,0,0,0,0,0,0,-3.0332,-3.0336,-3.0371,-3.0367,-3.0368,-3.037,-3.0373,-3.0386,-3.04,-3.0388,-3.0388,-3.0392,-3.0413,-3.0419,-3.0421,-3.0441,-3.043,-3.0432,-3.0432,-3.0433,-3.0472,-3.0472,0,0,0,0,0,0,-3.033,-3.0335,-3.037,-3.0372,-3.0351,-3.0371,-3.0375,-3.0383,-3.04,-3.0403,-3.0392,-3.0392,-3.0417,-3.042,-3.0422,-3.0438,-3.0432,-3.0433,-3.0434,-3.0472,-3.0472,-3.0472,0,0,0,0,0,0,-3.0328,-3.0333,-3.0369,-3.0353,-3.0358,-3.0372,-3.0381,-3.0383,-3.039,-3.0404,-3.0406,-3.0396,-3.0417,-3.0421,-3.0435,-3.0439,-3.0434,-3.0435,-3.0471,-3.0472,-3.0472,-3.0469,0,0,0,0,0,0,-3.0327,-3.0332,-3.0337,-3.0353,-3.0359,-3.0381,-3.0381,-3.0384,-3.0392,-3.0392,-3.0408,-3.041,-3.0417,-3.0433,-3.0436,-3.0441,-3.0436,-3.0471,-3.0472,-3.0472,-3.0468,-3.0469,-3.0469,0,0,0,0,0,-3.0325,-3.0334,-3.0337,-3.0341,-3.0365,-3.0381,-3.0384,-3.0393,-3.0392,-3.0397,-3.0406,-3.0409,-3.0438,-3.0434,-3.0438,-3.0443,-3.0471,-3.0471,-3.0472,-3.0468,-3.0469,-3.0469,0,0,0,0,0,0,-3.0317,-3.0336,-3.034,-3.0355,-3.0366,-3.0382,-3.0389,-3.0393,-3.0405,-3.0404,-3.0415,-3.0418,-3.0431,-3.0439,-3.0434,-3.0456,-3.0455,-3.0456,-3.045,-3.0451,-3.0451,-3.0449,-3.0437,0,0,0,0,0,-3.0317,-3.0328,-3.0345,-3.0356,-3.0362,-3.0374,-3.0381,-3.0388,-3.04,-3.0404,-3.0415,-3.0426,-3.0437,-3.0445,-3.0456,-3.047,-3.0473,-3.0475,-3.0476,-3.0476,-3.0477,-3.0485,-3.0486,-3.0474,-3.0474,-3.0474,0,0,-3.0317,-3.0329,-3.0335,-3.0355,-3.0364,-3.0376,-3.0378,-3.039,-3.0399,-3.0406,-3.042,-3.0428,-3.0441,-3.0455,-3.0462,-3.0462,-3.0481,-3.0477,-3.0477,-3.0478,-3.0486,-3.0487,-3.0488,-3.0475,-3.0475,-3.0475,0,0,-3.0322,-3.0332,-3.0343,-3.0353,-3.0369,-3.0377,-3.038,-3.0396,-3.0401,-3.0416,-3.0422,-3.0432,-3.0452,-3.0461,-3.0468,-3.0479,-3.0482,-3.0482,-3.0484,-3.0492,-3.0493,-3.0494,-3.0498,-3.0499,-3.0483,-3.0483,-3.0483,0,-3.032,-3.0338,-3.0348,-3.036,-3.0369,-3.0377,-3.0388,-3.0397,-3.0415,-3.042,-3.042,-3.0445,-3.0455,-3.0471,-3.0474,-3.048,-3.0483,-3.048,-3.0492,-3.0493,-3.0494,-3.0498,-3.0499,-3.0483,-3.0483,-3.0483,-3.0483,0,-3.0334,-3.0347,-3.0353,-3.0371,-3.0381,-3.0392,-3.0404,-3.0412,-3.0418,-3.0426,-3.0441,-3.0453,-3.0467,-3.0472,-3.0477,-3.0489,-3.0489,-3.049,-3.0489,-3.0495,-3.0499,-3.05,-3.0483,-3.0483,-3.0483,-3.0483,0,0,-3.0334,-3.0359,-3.0361,-3.037,-3.0387,-3.0397,-3.0409,-3.0424,-3.0431,-3.0443,-3.0453,-3.047,-3.0472,-3.048,-3.0487,-3.0494,-3.0502,-3.0494,-3.0495,-3.0495,-3.0516,-3.0515,-3.0516,-3.0504,-3.0505,-3.0505,-3.0515,0,-3.0342,-3.0364,-3.0374,-3.0392,-3.0404,-3.0412,-3.0423,-3.0434,-3.0443,-3.0454,-3.0463,-3.0475,-3.0477,-3.0482,-3.0489,-3.0499,-3.0506,-3.0498,-3.0513,-3.0514,-3.0509,-3.0518,-3.0516,-3.0526,-3.0517,-3.0517,-3.0517,0,-3.0353,-3.0367,-3.0386,-3.0403,-3.0408,-3.0417,-3.0432,-3.0443,-3.0457,-3.0462,-3.0472,-3.0479,-3.0491,-3.049,-3.0508,-3.0503,-3.051,-3.0515,-3.0516,-3.0517,-3.0515,-3.0519,-3.0529,-3.053,-3.0519,-3.0519,-3.0519,0,-3.0351,-3.0374,-3.0388,-3.0396,-3.0416,-3.0422,-3.0431,-3.0445,-3.0453,-3.0466,-3.0472,-3.0486,-3.0493,-3.0504,-3.0514,-3.0512,-3.0531,-3.053,-3.0535,-3.0535,-3.0538,-3.0538,-3.0549,-3.0543,-3.0543,-3.0543,-3.0543,0,-3.0359,-3.037,-3.0388,-3.0397,-3.041,-3.0422,-3.0434,-3.0443,-3.0456,-3.0466,-3.0475,-3.0484,-3.0497,-3.0508,-3.0516,-3.053,-3.0533,-3.0538,-3.054,-3.0537,-3.0536,-3.0541,-3.0541,-3.0544,-3.0544,-3.0544,-3.0544,0,-3.0358,-3.0371,-3.0387,-3.0406,-3.0411,-3.042,-3.0435,-3.0444,-3.0454,-3.0467,-3.0471,-3.0485,-3.0499,-3.051,-3.0528,-3.0534,-3.0548,-3.055,-3.0543,-3.0544,-3.0549,-3.0548,-3.0562,-3.0565,-3.0558,-3.0558,-3.0558,0,-3.0362,-3.0371,-3.0391,-3.0399,-3.0408,-3.0421,-3.043,-3.0442,-3.0451,-3.0468,-3.0475,-3.049,-3.0502,-3.0524,-3.0536,-3.0549,-3.0552,-3.0556,-3.0554,-3.0551,-3.0552,-3.0551,-3.0552,-3.0556,-3.0556,-3.0556,-3.0556,0,-3.0367,-3.0374,-3.0387,-3.0402,-3.0413,-3.0426,-3.0438,-3.0445,-3.0459,-3.0469,-3.0484,-3.0493,-3.0512,-3.0526,-3.0542,-3.055,-3.0556,-3.0557,-3.0559,-3.0556,-3.0551,-3.0554,-3.0543,-3.0556,-3.0556,-3.0556,-3.0556,-3.0556,-3.0369,-3.0378,-3.0394,-3.0408,-3.0419,-3.0431,-3.0441,-3.0452,-3.0465,-3.0481,-3.0488,-3.0503,-3.0517,-3.0538,-3.0547,-3.0559,-3.0559,-3.0562,-3.0563,-3.0563,-3.0563,-3.055,-3.0562,-3.0562,-3.0562,-3.0562,-3.0562,0,-3.0375,-3.0386,-3.0399,-3.0417,-3.0429,-3.0434,-3.0448,-3.0458,-3.0471,-3.0484,-3.0496,-3.0513,-3.0528,-3.0541,-3.0556,-3.0563,-3.0566,-3.0566,-3.0566,-3.0568,-3.0562,-3.0558,-3.0564,-3.0564,-3.0564,-3.0564,-3.0564,-3.0564,-3.0379,-3.0394,-3.0403,-3.0423,-3.0434,-3.0449,-3.0457,-3.0468,-3.0479,-3.0498,-3.051,-3.0519,-3.0533,-3.0549,-3.0562,-3.0565,-3.057,-3.057,-3.0574,-3.0568,-3.0568,-3.0568,-3.0565,-3.0571,-3.0571,-3.058,-3.058,-3.058]},{"header":{"parameterUnit":"m.s-1","parameterCategory":1,"la1":30.2991,"la2":30.254,"lo1":-89.0895,"lo2":-89.0444,"dy":0.0017,"dx":0.0017,"nx":28,"ny":28,"refTime":"2024-04-08T21:00:00:Z","depth":0,"parameterNumber":3,"parameterNumberName":"V-component_of_WINDS"},"data":[0,0,0,0,0,0,0,0,0,0,0,0,0,0,0,0,0,0,0,0,0,0,0,0,0,0,0,0,0,0,0,0,0,0,0,0,0,0,0,0,0,0,0,0,0,0,0,0,0,0,0,0,0,0,0,0,0,0,3.8344,3.8343,0,3.8288,3.8287,3.8287,3.8274,3.8274,3.8274,3.8275,3.8215,3.8213,3.8211,0,0,0,0,0,0,0,0,0,0,0,0,0,3.8441,3.844,3.8344,3.8343,3.8342,3.8288,3.8287,3.8286,3.8274,3.8274,3.8274,3.8275,3.8215,3.8213,3.8211,0,0,0,0,0,0,0,0,0,0,0,0,0,3.8393,3.8439,3.8344,3.833,3.8328,3.8288,3.8287,3.8286,3.8273,3.8274,3.8275,3.8275,3.8216,3.8213,3.821,3.818,0,0,3.8201,3.82,0,0,0,0,0,0,0,0,3.8396,3.839,3.8332,3.833,3.8328,3.8288,3.8299,3.8251,3.8273,3.8294,3.8275,3.8275,3.8239,3.8234,3.8222,3.8177,3.8175,3.8201,3.8199,3.8198,3.8197,0,0,0,0,0,0,0,3.8399,3.8392,3.8322,3.8332,3.8329,3.8326,3.832,3.829,3.8263,3.8292,3.8291,3.8285,3.8238,3.8225,3.822,3.8174,3.8201,3.8199,3.8197,3.8196,3.8108,3.8108,0,0,0,0,0,0,3.8405,3.8395,3.8323,3.832,3.8365,3.8324,3.8317,3.8301,3.8264,3.8259,3.8284,3.8284,3.823,3.8224,3.8218,3.8184,3.8198,3.8195,3.8194,3.8109,3.8108,3.8108,0,0,0,0,0,0,3.8408,3.8399,3.8326,3.8357,3.8348,3.8322,3.8303,3.8299,3.8286,3.8258,3.8253,3.8276,3.823,3.8222,3.8191,3.8182,3.8194,3.8191,3.811,3.8109,3.8108,3.8113,0,0,0,0,0,0,3.841,3.84,3.8387,3.8357,3.8346,3.8299,3.8302,3.8298,3.8282,3.8281,3.8249,3.8244,3.823,3.8196,3.8188,3.8178,3.8189,3.811,3.8109,3.8108,3.8114,3.8113,3.8112,0,0,0,0,0,3.8414,3.8389,3.8387,3.8378,3.833,3.8298,3.8292,3.8276,3.8281,3.8269,3.8252,3.8245,3.8184,3.8193,3.8184,3.8173,3.8111,3.8109,3.8108,3.8114,3.8113,3.8112,0,0,0,0,0,0,3.8416,3.8385,3.8381,3.8346,3.8326,3.8296,3.828,3.8275,3.8251,3.8252,3.8233,3.8226,3.8197,3.8182,3.8192,3.8145,3.8148,3.8145,3.8155,3.8154,3.8153,3.8157,3.8186,0,0,0,0,0,3.8413,3.839,3.8364,3.8335,3.8325,3.8305,3.829,3.8281,3.8258,3.8249,3.8229,3.8207,3.8184,3.8168,3.8144,3.8113,3.8107,3.8101,3.81,3.8099,3.8097,3.8083,3.8081,3.8104,3.8104,3.8104,0,0,3.8405,3.8385,3.8371,3.8335,3.8318,3.8296,3.8297,3.8272,3.8256,3.8244,3.8215,3.8201,3.8175,3.8145,3.8131,3.8131,3.809,3.8098,3.8097,3.8095,3.8082,3.808,3.8078,3.8103,3.8103,3.8103,0,0,3.8379,3.8361,3.8338,3.8322,3.8297,3.8285,3.828,3.8253,3.8243,3.8214,3.8207,3.8188,3.8146,3.813,3.8116,3.8093,3.8087,3.8086,3.808,3.8067,3.8065,3.8064,3.8058,3.8056,3.8083,3.8083,3.8083,0,3.8372,3.8338,3.8326,3.8303,3.8289,3.8282,3.8259,3.8244,3.8212,3.8203,3.8205,3.8157,3.8139,3.8107,3.8103,3.8091,3.8086,3.8088,3.8067,3.8065,3.8063,3.8058,3.8055,3.8083,3.8083,3.8083,3.8083,0,3.8333,3.831,3.8294,3.8267,3.8252,3.8229,3.8214,3.82,3.8195,3.8183,3.8156,3.8135,3.8109,3.8101,3.8093,3.807,3.8072,3.807,3.8073,3.8062,3.8056,3.8054,3.8084,3.8084,3.8084,3.8084,0,0,3.8302,3.8274,3.8268,3.8258,3.8233,3.8216,3.8195,3.8172,3.8162,3.8142,3.8125,3.8094,3.8095,3.808,3.8071,3.8059,3.8047,3.806,3.806,3.806,3.8024,3.8025,3.8022,3.8044,3.8043,3.8043,3.8026,0,3.8275,3.8238,3.8229,3.8197,3.8179,3.8175,3.8157,3.8141,3.8131,3.8114,3.8103,3.8082,3.8083,3.8075,3.8063,3.805,3.8039,3.8051,3.8029,3.8028,3.8036,3.8019,3.8019,3.8004,3.8024,3.8023,3.8023,0,3.8237,3.822,3.8188,3.8171,3.8163,3.8147,3.8128,3.8112,3.8095,3.8089,3.8076,3.8069,3.805,3.8056,3.803,3.8039,3.803,3.8023,3.8022,3.8019,3.8025,3.8016,3.7998,3.7997,3.8019,3.8019,3.802,0,3.8221,3.819,3.8168,3.8159,3.8138,3.8128,3.8119,3.8103,3.8092,3.8076,3.8069,3.805,3.804,3.8027,3.8017,3.8021,3.7994,3.7997,3.7989,3.799,3.7982,3.7983,3.7963,3.7976,3.7976,3.7976,3.7976,0,3.8192,3.8172,3.8161,3.8147,3.8128,3.8119,3.8099,3.809,3.8078,3.8063,3.8058,3.8045,3.8033,3.8019,3.8011,3.7993,3.7988,3.7984,3.7982,3.7984,3.7985,3.7977,3.7978,3.7975,3.7975,3.7976,3.7976,0,3.8169,3.8161,3.8137,3.8122,3.8118,3.8104,3.8091,3.8078,3.8071,3.8053,3.8049,3.8036,3.802,3.801,3.7988,3.7983,3.7964,3.7962,3.797,3.7969,3.7963,3.7964,3.7938,3.7935,3.7949,3.7949,3.7949,0,3.8151,3.8137,3.8122,3.8113,3.8105,3.8089,3.808,3.8073,3.8062,3.8046,3.8037,3.8021,3.8008,3.7982,3.7972,3.7957,3.7955,3.7947,3.7952,3.7957,3.7957,3.7958,3.7958,3.7946,3.7946,3.7946,3.7945,0,3.812,3.8119,3.8105,3.8091,3.8081,3.8069,3.8057,3.805,3.8042,3.8031,3.8016,3.8006,3.7987,3.7972,3.7958,3.7949,3.7947,3.7945,3.7942,3.7944,3.795,3.7949,3.7969,3.7945,3.7945,3.7945,3.7945,3.7945,3.81,3.809,3.8079,3.8065,3.8057,3.8048,3.8037,3.8031,3.8018,3.8003,3.8,3.7985,3.7974,3.7954,3.7946,3.7935,3.7936,3.7932,3.7931,3.7931,3.7932,3.7953,3.7932,3.7932,3.7932,3.7932,3.7932,0,3.8071,3.8066,3.8054,3.804,3.803,3.8032,3.8021,3.8013,3.8,3.799,3.7979,3.7964,3.7952,3.7943,3.793,3.7923,3.7922,3.7921,3.7921,3.792,3.793,3.7934,3.7922,3.7922,3.7922,3.7922,3.7922,3.7922,3.8055,3.8038,3.8036,3.8017,3.8011,3.7998,3.7992,3.7985,3.7978,3.7962,3.7953,3.7948,3.7939,3.7927,3.7917,3.7915,3.7911,3.791,3.7907,3.7917,3.7918,3.7919,3.7923,3.7909,3.7909,3.7898,3.7898,3.7898]}]]